Valentine, NE

9:06 PM CDT on April 29, 2017 (GMT -0500)
Miller Field

Weather History for KVTN - November, 2013

Change the Weather History Date:

Tuesday, November 5, 2013

  Actual Average Record
Temperature  
Mean Temperature 32 °F 40 °F  
Max Temperature 37 °F 54 °F 83 °F (2001)
Min Temperature 27 °F 26 °F 2 °F (1959)
Degree Days  
Heating Degree Days 33 25  
Month to date heating degree days 122 121  
Since 1 July heating degree days 777 823  
Cooling Degree Days 0 0  
Month to date cooling degree days 0 0  
Year to date cooling degree days 964 821  
Moisture  
Dew Point 27 °F    
Average Humidity 78    
Maximum Humidity 92    
Minimum Humidity 64    
Precipitation  
Precipitation 0.28 in 0.03 in 0.33 in (2015)
Month to date precipitation 0.33 0.14  
Year to date precipitation 22.73 19.14  
Snow  
Snow 0.00 in 0.10 in 4.00 in (2013)
Month to date snowfall 0.0 0.8  
Since 1 July snowfall 1.0 3.0  
Since 1 September snowfall 1.0 3.0  
Snow Depth -    
Sea Level Pressure  
Sea Level Pressure 30.14 in    
Wind  
Wind Speed 7 mph (NNE)    
Max Wind Speed 15 mph    
Max Gust Speed 18 mph    
Visibility 4 miles    
Events Fog , Snow    
T = Trace of Precipitation, MM = Missing Value Source: NWS Daily Summary

Daily Weather History Graph

Daily Weather History Graph

Search for Another Location

Airport or City:

Trip Planner

Search our weather history database for the weather conditions in past years. The results will help you decide how hot, cold, wet, or windy it might be!

Date:

Astronomy

Nov. 05, 2013 Rise Set
Actual Time 7:21 AM CST 5:29 PM CST
Civil Twilight 6:52 AM CST 5:58 PM CST
Nautical Twilight 6:18 AM CST 6:32 PM CST
Astronomical Twilight 5:45 AM CST 7:05 PM CST
Moon 9:40 AM CST (11/5) 7:30 PM CST (11/5)
Length of Visible Light 11h 06m
Length of Day
10h 07m
Waxing Crescent, 7% of the Moon is Illuminated
Nov 5
Waxing Crescent
Nov 9
First Quarter
Nov 17
Full
Nov 25
Last Quarter
Dec 2
New

Hourly Weather History & Observations

Time (CST) Temp. Windchill Dew Point Humidity Pressure Visibility Wind Dir Wind Speed Gust Speed Precip Events Conditions
12:52 AM 36.0 °F 29.6 °F 27.0 °F 70% 30.14 in 10.0 mi NE 8.1 mph - N/A   Overcast
1:52 AM 36.0 °F 31.1 °F 27.0 °F 70% 30.14 in 10.0 mi ENE 5.8 mph - N/A   Overcast
2:52 AM 36.0 °F 29.6 °F 28.0 °F 73% 30.12 in 10.0 mi ENE 8.1 mph - N/A   Overcast
3:52 AM 36.0 °F 28.5 °F 27.0 °F 70% 30.10 in 10.0 mi ENE 10.4 mph - N/A   Overcast
4:52 AM 36.0 °F 28.5 °F 25.0 °F 64% 30.10 in 10.0 mi NE 10.4 mph - N/A   Overcast
5:52 AM 34.0 °F 26.0 °F 26.1 °F 73% 30.12 in 10.0 mi NE 10.4 mph - N/A   Mostly Cloudy
6:52 AM 35.1 °F 27.4 °F 27.0 °F 72% 30.14 in 10.0 mi East 10.4 mph - N/A   Overcast
7:52 AM 35.1 °F 28.6 °F 27.0 °F 72% 30.17 in 10.0 mi ENE 8.1 mph - N/A   Overcast
8:18 AM 35.6 °F 28.6 °F 26.6 °F 70% 30.10 in 10.0 mi NE 9.2 mph - N/A   Overcast
8:46 AM 35.6 °F 28.0 °F 26.6 °F 70% 30.12 in 1.8 mi ENE 10.4 mph - 0.00 in Snow Light Snow
8:52 AM 34.0 °F 26.0 °F 27.0 °F 75% 30.19 in 1.2 mi NE 10.4 mph - 0.00 in Snow Light Snow
9:18 AM 33.8 °F 25.3 °F 28.4 °F 81% 30.12 in 0.8 mi NE 11.5 mph - 0.01 in Snow Light Snow
9:52 AM 32.0 °F 22.5 °F 28.9 °F 88% 30.19 in 0.5 mi NE 12.7 mph - 0.03 in Fog , Snow Snow
10:21 AM 32.0 °F 22.5 °F 28.4 °F 87% 30.11 in 0.8 mi NE 12.7 mph - 0.01 in Snow Light Snow
10:52 AM 30.9 °F 22.2 °F 28.9 °F 92% 30.20 in 0.8 mi NE 10.4 mph - 0.03 in Snow Light Snow
10:58 AM 30.2 °F 20.8 °F 28.4 °F 93% 30.12 in 1.0 mi NE 11.5 mph - 0.00 in Snow Light Snow
11:12 AM 30.2 °F 21.3 °F 28.4 °F 93% 30.12 in 0.8 mi NE 10.4 mph - 0.01 in Snow Light Snow
11:19 AM 30.2 °F 21.3 °F 28.4 °F 93% 30.12 in 0.5 mi NE 10.4 mph - 0.01 in Fog , Snow Snow
11:52 AM 30.9 °F 22.8 °F 28.9 °F 92% 30.19 in 0.5 mi NE 9.2 mph - 0.03 in Fog , Snow Snow
12:27 PM 30.2 °F 21.3 °F 28.4 °F 93% 30.10 in 0.8 mi ENE 10.4 mph - 0.02 in Snow Light Snow
12:43 PM 30.2 °F 21.3 °F 28.4 °F 93% 30.10 in 0.5 mi NE 10.4 mph - 0.03 in Fog , Snow Snow
12:52 PM 30.9 °F 22.8 °F 28.9 °F 92% 30.17 in 0.2 mi NE 9.2 mph - 0.04 in Fog , Snow Snow
1:19 PM 30.2 °F 21.9 °F 28.4 °F 93% 30.08 in 0.8 mi NE 9.2 mph - 0.01 in Snow Light Snow
1:32 PM 30.2 °F 21.9 °F 30.2 °F 100% 30.07 in 0.5 mi NE 9.2 mph - 0.02 in Fog , Snow Snow
1:52 PM 30.9 °F 21.7 °F 28.9 °F 92% 30.14 in 0.5 mi NE 11.5 mph - 0.04 in Fog , Snow Snow
2:14 PM 30.2 °F 22.6 °F 28.4 °F 93% 30.07 in 0.8 mi NNE 8.1 mph - 0.01 in Snow Light Snow
2:52 PM 30.9 °F 22.2 °F 28.0 °F 89% 30.15 in 0.8 mi NNE 10.4 mph - 0.02 in Snow Light Snow
2:59 PM 30.2 °F 21.9 °F 28.4 °F 93% 30.09 in 0.8 mi NNE 9.2 mph - 0.00 in Snow Light Snow
3:09 PM 30.2 °F 20.8 °F 28.4 °F 93% 30.09 in 0.8 mi NNE 11.5 mph - 0.01 in Snow Light Snow
3:17 PM 30.2 °F 20.8 °F 26.6 °F 86% 30.09 in 0.8 mi NNE 11.5 mph - 0.01 in Snow Light Snow
3:39 PM 30.2 °F 21.3 °F 26.6 °F 86% 30.10 in 0.8 mi NNE 10.4 mph - 0.02 in Snow Light Snow
3:52 PM 30.0 °F 21.7 °F 28.0 °F 92% 30.17 in 0.8 mi NNE 9.2 mph - 0.02 in Snow Light Snow
4:02 PM 30.2 °F 21.3 °F 28.4 °F 93% 30.10 in 0.5 mi NNE 10.4 mph - 0.01 in Fog , Snow Light Snow
4:13 PM 30.2 °F 24.3 °F 28.4 °F 93% 30.10 in 0.5 mi NNE 5.8 mph - 0.01 in Fog , Snow Light Snow
4:39 PM 30.2 °F 21.9 °F 26.6 °F 86% 30.10 in 1.0 mi NNE 9.2 mph - 0.02 in Snow Light Snow
4:52 PM 30.0 °F 22.4 °F 27.0 °F 88% 30.18 in 1.0 mi NE 8.1 mph - 0.02 in Snow Light Snow
5:10 PM 30.2 °F 24.3 °F 26.6 °F 86% 30.11 in 1.2 mi North 5.8 mph - 0.00 in Snow Light Snow
5:23 PM 30.2 °F 24.3 °F 26.6 °F 86% 30.12 in 0.8 mi North 5.8 mph - 0.01 in Snow Light Snow
5:37 PM 30.2 °F 23.4 °F 28.4 °F 93% 30.12 in 1.2 mi North 6.9 mph - 0.01 in Snow Light Snow
5:47 PM 28.4 °F 22.2 °F 26.6 °F 93% 30.13 in 2.0 mi North 5.8 mph - 0.01 in Snow Light Snow
5:48 PM 28.9 °F 22.8 °F 27.0 °F 92% 30.21 in 2.0 mi North 5.8 mph - 0.01 in Snow Light Snow
5:55 PM 28.4 °F 24.6 °F 26.6 °F 93% 30.13 in 2.5 mi North 3.5 mph - 0.01 in Snow Light Snow
6:03 PM 28.4 °F 24.6 °F 26.6 °F 93% 30.13 in 3.0 mi NNW 3.5 mph - 0.01 in Snow Light Snow
6:15 PM 28.4 °F 21.2 °F 26.6 °F 93% 30.14 in 2.0 mi NNW 6.9 mph - 0.01 in Snow Light Snow
6:18 PM 28.4 °F 21.2 °F 26.6 °F 93% 30.14 in 1.8 mi NNW 6.9 mph - 0.01 in Snow Light Snow
6:52 PM 28.9 °F - 27.0 °F 92% 30.23 in 1.2 mi Calm Calm - 0.02 in Snow Light Snow
7:10 PM 28.4 °F 24.6 °F 26.6 °F 93% 30.15 in 2.0 mi NNW 3.5 mph - 0.01 in Snow Light Snow
7:29 PM 28.4 °F 23.3 °F 26.6 °F 93% 30.15 in 3.0 mi NW 4.6 mph - 0.01 in Snow Light Snow
7:35 PM 28.4 °F 23.3 °F 26.6 °F 93% 30.15 in 1.8 mi NW 4.6 mph - 0.01 in Snow Light Snow
7:45 PM 28.4 °F 24.6 °F 26.6 °F 93% 30.15 in 1.5 mi NW 3.5 mph - 0.01 in Snow Light Snow
7:52 PM 28.9 °F 25.2 °F 27.0 °F 92% 30.23 in 1.8 mi NW 3.5 mph - 0.01 in Snow Light Snow
8:23 PM 28.4 °F 24.6 °F 26.6 °F 93% 30.15 in 2.0 mi WNW 3.5 mph - 0.01 in Snow Light Snow
8:52 PM 28.0 °F - 27.0 °F 96% 30.23 in 2.5 mi Calm Calm - 0.01 in Snow Light Snow
9:12 PM 28.4 °F - 26.6 °F 93% 30.15 in 3.0 mi Calm Calm - 0.00 in Snow Light Snow
9:52 PM 27.0 °F - 25.0 °F 92% 30.25 in 4.0 mi Calm Calm - 0.00 in Snow Light Snow
10:05 PM 26.6 °F - 26.6 °F 100% 30.16 in 5.0 mi Calm Calm - 0.00 in   Overcast
10:52 PM 28.0 °F - 26.1 °F 92% 30.24 in 10.0 mi Calm Calm - 0.00 in   Overcast
11:01 PM 28.4 °F 24.6 °F 26.6 °F 93% 30.15 in 10.0 mi NW 3.5 mph - N/A   Overcast
11:21 PM 28.4 °F 24.6 °F 26.6 °F 93% 30.15 in 10.0 mi WNW 3.5 mph - N/A   Overcast
11:48 PM 26.6 °F 21.2 °F 24.8 °F 93% 30.14 in 10.0 mi WNW 4.6 mph - N/A   Overcast
11:52 PM 27.0 °F 20.5 °F 25.0 °F 92% 30.23 in 10.0 mi WNW 5.8 mph - N/A   Overcast